Location: Landeleau
(48.2273°N, 3.7285°W)
Time: 05:29:26
(UTC+00:00)

Cosmos 1805 - Pass Details

Date: 30 March 2020
Orbit: 525 x 530 km, 82.5° (Epoch: 02 June)

Event Time Altitude Azimuth Distance (km) Brightness Sun altitude
Rises 19:03:10 0° 181° (S) 2,661 6.7 -4.2°
Reaches altitude 10° 19:05:19 10° 179° (S) 1,776 5.8 -4.5°
Maximum altitude 19:09:11 68° 97° (E) 577 3.2 -5.1°
Drops below altitude 10° 19:13:05 10° 14° (NNE) 1,790 5.9 -5.8°
Sets 19:15:15 0° 12° (NNE) 2,684 6.9 -6.1°
